#timestamp,LO_Frequency,Hit,StdDev 
1593579615.1,286046995.1,N
1593579616.0,286046995.1,N
1593579635.8,286046995.0,N
1593579655.7,286046994.9,N
1593579675.5,286046995.6,N
1593579695.3,286046994.3,N
1593579715.2,286046994.4,N
1593579735.0,286046996.3,N
1593579735.9,286046996.3,N
1593579755.8,286046995.3,N
1593579775.6,286046995.7,N
1593579795.4,286046994.9,N
1593579815.3,286046996.7,N
1593579835.1,286046997.4,N
1593579855.8,286046997.3,N
1593579875.7,286046996.7,N
1593579895.5,286046999.5,N
1593579915.4,286046999.6,N
1593579935.2,286046999.3,N
1593579955.0,286046998.4,N
1593579955.9,286046998.4,N
1593579975.8,286047001.0,N
1593579995.6,286046998.9,N
1593580015.4,286046998.5,N
1593580035.3,286047000.9,N
1593580055.1,286047000.7,N
1593580075.9,286046999.8,N
1593580095.7,286047002.5,N
1593580115.5,286047001.9,N
1593580135.4,286047001.9,N
1593580155.2,286047002.5,N
1593580175.1,286047002.2,N
1593580176.0,286047002.2,N
1593580195.8,286047003.6,N
1593580215.6,286047001.4,N
1593580235.5,286047005.6,N
1593580255.3,286047001.9,N
1593580275.1,286047003.9,N
1593580295.9,286047003.6,N
1593580315.7,286047001.9,N
1593580335.6,286047004.1,N
1593580355.4,286046999.7,N
1593580375.2,286047003.8,N
1593580395.1,286047005.7,N
1593580396.0,286047005.7,N
1593580415.8,286047003.0,N
1593580435.7,286047003.8,N
1593580455.5,286047003.1,N
1593580475.3,286047004.2,N
1593580495.2,286047001.7,N
1593580515.0,286047001.5,N
1593580515.9,286047001.5,N
1593580535.7,286047004.8,N
1593580555.6,286047004.5,N
1593580575.4,286047004.6,N
1593580595.3,286047006.6,Y
1593580615.1,286047000.1,P
1593580635.8,286046998.7,N
1593580655.7,286047002.0,N
1593580675.5,286047004.3,N
1593580695.4,286047004.3,N
1593580715.2,286047003.7,N
1593580735.0,286047001.7,N
1593580735.9,286047001.7,N
1593580755.8,286047001.4,N
1593580775.6,286047006.3,Y
1593580795.5,286047005.8,P
1593580815.3,286047003.5,N
1593580835.1,286047005.6,P
1593580855.9,286047002.5,N
1593580875.7,286046998.5,N
1593580895.5,286047000.7,N
1593580915.4,286047000.5,N
1593580935.2,286047000.6,N
1593580955.1,286046999.8,N
1593580956.0,286046999.8,N
1593580975.8,286046999.7,N
1593580995.6,286047002.8,N
1593581015.5,286047000.1,N
1593581035.3,286046998.0,N
1593581055.1,286046997.5,N
1593581075.9,286046997.6,N
1593581095.7,286046999.6,N
1593581115.6,286047000.0,N
1593581135.4,286047000.9,N
1593581155.2,286046999.1,N
1593581175.1,286046999.4,N
1593581176.0,286046999.4,N
1593581195.8,286046995.5,N
1593581215.7,286046997.6,N
1593581235.5,286046995.5,N
1593581255.3,286046991.7,Y
1593581275.2,286046992.7,P
1593581295.0,286046993.0,N
1593581295.9,286046993.0,N
1593581315.8,286046991.5,N
1593581335.6,286046989.2,Y
1593581355.4,286046995.1,P
1593581375.3,286046999.0,N
1593581395.1,286046999.1,N
1593581415.8,286046998.2,N
1593581435.7,286046997.1,N
1593581455.5,286046998.6,N
1593581475.4,286046998.9,N
1593581495.2,286046996.9,N
1593581515.0,286046997.7,N
1593581515.9,286046997.7,N
1593581535.8,286046995.2,Y
1593581555.6,286046998.6,P
1593581575.5,286047001.0,N
1593581595.3,286046999.1,N
1593581615.1,286046996.6,N
1593581635.9,286046996.8,N
1593581655.7,286046996.8,N
1593581675.5,286047000.3,N
1593581695.4,286046997.0,N
1593581715.2,286046995.2,Y
1593581735.1,286046999.6,P
1593581736.0,286046999.6,N
1593581755.8,286046997.9,P
1593581775.6,286046999.0,N
1593581795.5,286047000.1,N
1593581815.3,286047002.7,Y
1593581835.2,286047004.1,P
1593581855.9,286047003.4,N
1593581875.7,286047005.7,N
1593581895.6,286047003.1,N
1593581915.4,286047003.0,N
1593581935.2,286047001.8,N
1593581955.1,286047004.4,N
1593581956.0,286047004.4,N
1593581975.8,286047002.9,N
1593581995.7,286047004.3,N
1593582015.5,286047002.1,N
1593582035.3,286047002.2,N
1593582055.2,286047001.4,N
1593582075.0,286047003.5,N
1593582075.9,286047003.5,N
1593582095.8,286047005.4,Y
1593582115.6,286047001.7,P
1593582135.4,286047000.5,N
1593582155.3,286047001.6,N
1593582175.1,286047002.6,N
1593582195.8,286047000.2,N
1593582215.7,286047003.9,Y
1593582235.5,286047003.9,P
1593582255.4,286047001.4,N
1593582275.2,286047000.1,N
1593582295.0,286047001.9,N
1593582295.9,286047001.9,N
1593582315.8,286047003.8,Y
1593582335.6,286047000.8,P
1593582355.5,286047002.6,P
1593582375.3,286047004.0,P
1593582395.1,286047004.0,Y
1593582415.9,286046998.4,P
1593582435.7,286046997.7,N
1593582455.5,286046997.0,N
1593582475.4,286046996.9,N
1593582495.2,286046995.7,N
1593582515.1,286046994.4,N
1593582516.0,286046994.4,N
1593582535.8,286046993.9,N
1593582555.6,286046994.4,N
1593582575.5,286046994.8,N
1593582595.3,286046996.3,N
1593582615.2,286046994.9,N
1593582635.9,286046996.6,N
1593582655.7,286046998.9,N
1593582675.6,286046998.1,N
1593582695.4,286046996.5,N
1593582715.2,286046997.6,N
1593582735.1,286046995.3,N
1593582736.0,286046995.3,N
1593582755.8,286046996.8,N
1593582775.7,286046997.8,N
1593582795.5,286046996.7,N
1593582815.3,286046997.8,N
1593582835.2,286046995.7,N
1593582855.0,286046995.0,N
1593582855.9,286046995.0,N
1593582875.7,286046995.8,N
1593582895.6,286046997.5,N
1593582915.4,286046997.7,N
1593582935.3,286046999.1,N
1593582955.1,286046998.6,N
1593582956.0,286046998.6,N
1593582975.8,286046998.9,N
1593582995.7,286046999.0,N
1593583015.5,286046999.4,N
1593583035.4,286046998.5,N
1593583055.2,286047002.4,N
1593583075.0,286047001.3,N
1593583075.9,286047001.3,N
1593583095.8,286047000.4,N
1593583115.6,286047001.1,N
1593583135.4,286047000.7,N
1593583155.3,286046998.6,N
1593583175.1,286046997.1,N
1593583195.9,286046999.3,N
